Hayward, WI

2:00 PM CST on February 14, 2016 (GMT -0600)
Sawyer County

Weather History for KHYR - March, 2015

Change the Weather History Date:

Tuesday, March 17, 2015

  Actual Average Record
Temperature  
Mean Temperature 32 °F -  
Max Temperature 41 °F 41 °F 77 °F (2012)
Min Temperature 24 °F -2 °F -14 °F (2013)
Degree Days  
Heating Degree Days 32    
Moisture  
Dew Point 10 °F    
Average Humidity 42    
Maximum Humidity 69    
Minimum Humidity 25    
Precipitation  
Precipitation 0.00 in - - ()
Sea Level Pressure  
Sea Level Pressure 30.39 in    
Wind  
Wind Speed 6 mph (NW)    
Max Wind Speed 13 mph    
Max Gust Speed 24 mph    
Visibility 10 miles    
Events      
Averages and records for this station are not official NWS values.
T = Trace of Precipitation, MM = Missing Value Source: NWS Daily Summary

Daily Weather History Graph

Daily Weather History Graph

Search for Another Location

Airport or City:

Trip Planner

Search our weather history database for the weather conditions in past years. The results will help you decide how hot, cold, wet, or windy it might be!

Date:

Astronomy

Mar. 17, 2015 Rise Set
Actual Time 7:15 AM CDT 7:14 PM CDT
Civil Twilight 6:45 AM CDT 7:43 PM CDT
Nautical Twilight 6:10 AM CDT 8:18 PM CDT
Astronomical Twilight 5:34 AM CDT 8:54 PM CDT
Moon 5:24 AM CDT (3/17) 4:10 PM CDT (3/17)
Length of Visible Light 12h 58m
Length of Day
11h 59m
Waning Crescent, 11% of the Moon is Illuminated
Mar 17
Waning Crescent
Mar 20
New
Mar 27
First Quarter
Apr 4
Full
Apr 11
Last Quarter

Hourly Weather History & Observations

Time (CDT) Temp. Windchill Dew Point Humidity Pressure Visibility Wind Dir Wind Speed Gust Speed Precip Events Conditions
12:53 AM 30.9 °F 22.8 °F 12.9 °F 47% 30.31 in 10.0 mi North 9.2 mph - N/A   Clear
1:53 AM 30.0 °F 26.5 °F 12.0 °F 47% 30.35 in 10.0 mi Variable 3.5 mph - N/A   Clear
2:53 AM 28.9 °F 25.2 °F 12.0 °F 49% 30.38 in 10.0 mi Variable 3.5 mph - N/A   Clear
3:53 AM 28.0 °F 22.8 °F 10.0 °F 47% 30.39 in 10.0 mi NNW 4.6 mph - N/A   Clear
4:53 AM 26.1 °F 21.9 °F 9.0 °F 49% 30.40 in 10.0 mi NW 3.5 mph - N/A   Clear
5:53 AM 26.1 °F 20.5 °F 9.0 °F 49% 30.42 in 10.0 mi Variable 4.6 mph - N/A   Clear
6:53 AM 24.1 °F - 9.0 °F 53% 30.43 in 10.0 mi Calm Calm - N/A   Clear
7:53 AM 25.0 °F 20.7 °F 8.1 °F 49% 30.45 in 10.0 mi Variable 3.5 mph - N/A   Clear
8:53 AM 27.0 °F 21.6 °F 8.1 °F 45% 30.46 in 10.0 mi Variable 4.6 mph - N/A   Clear
9:53 AM 30.0 °F 21.7 °F 8.1 °F 40% 30.47 in - WNW 9.2 mph - N/A   Clear
10:53 AM 32.0 °F 23.0 °F 8.1 °F 37% 30.46 in - NW 11.5 mph 20.7 mph N/A   Clear
11:53 AM 34.0 °F 26.0 °F 3.9 °F 28% 30.45 in 10.0 mi NW 10.4 mph 23.0 mph N/A   Clear
12:53 PM 36.0 °F 27.5 °F 7.0 °F 30% 30.43 in 10.0 mi North 12.7 mph 24.2 mph N/A   Clear
1:53 PM 37.9 °F 30.9 °F 8.1 °F 29% 30.42 in 10.0 mi NNW 10.4 mph 18.4 mph N/A   Clear
2:53 PM 39.0 °F 32.3 °F 7.0 °F 27% 30.39 in 10.0 mi NW 10.4 mph 20.7 mph N/A   Clear
3:53 PM 39.9 °F 33.4 °F 8.1 °F 27% 30.38 in 10.0 mi WNW 10.4 mph 19.6 mph N/A   Clear
4:53 PM 41.0 °F 34.7 °F 7.0 °F 25% 30.37 in 10.0 mi WNW 10.4 mph 19.6 mph N/A   Clear
5:53 PM 41.0 °F 36.4 °F 9.0 °F 27% 30.35 in 10.0 mi Variable 6.9 mph - N/A   Clear
6:53 PM 39.0 °F 34.8 °F 9.0 °F 29% 30.34 in 10.0 mi Variable 5.8 mph - N/A   Clear
7:53 PM 36.0 °F 33.3 °F 10.0 °F 34% 30.33 in 10.0 mi Variable 3.5 mph - N/A   Clear
8:53 PM 33.1 °F - 12.9 °F 43% 30.34 in 10.0 mi Calm Calm - N/A   Clear
9:53 PM 28.9 °F - 18.0 °F 64% 30.34 in 10.0 mi Calm Calm - N/A   Clear
10:53 PM 27.0 °F - 18.0 °F 69% 30.33 in 10.0 mi Calm Calm - N/A   Clear
11:53 PM 27.0 °F 21.6 °F 17.1 °F 66% 30.32 in 10.0 mi SSW 4.6 mph - N/A   Clear